{"data":{"norad_id":56115,"intl_designator":"2023-046Y","name":"STARLINK-6101","alt_names":[],"object_type":"PAYLOAD","status":"ACTIVE","operator":null,"country":"US","launch_date":"2023-03-29","launch_site_code":"AFETR","launch_vehicle":null,"mission":null,"orbit_class":"UNKNOWN","rcs_meters":null,"size_class":null,"mass_kg":null,"dimensions":null,"purposes":["comms"],"wikipedia_slug":null,"has_3d_model":false,"image_url":null,"decayed_at":null,"tle_current":{"epoch":"2026-05-24T23:02:27.528576Z","epoch_age_seconds":81739,"freshness":"FRESH","line1":"1 56115U 23046Y   26144.96004084 -.00000094  00000+0  61287-5 0  9993","line2":"2 56115  43.0058  87.6118 0001471 285.4595  74.6094 15.27576606173738","mean_motion":15.27576606,"eccentricity":0.0001471,"inclination_deg":43.0058,"raan_deg":87.6118,"arg_perigee_deg":285.4595,"mean_anomaly_deg":74.6094,"bstar":6.1287e-6,"rev_number":17373,"period_min":94.266958157384,"perigee_km":482.04997694577,"apogee_km":484.06854088514,"semimajor_km":6861.1962589155,"source":"CELESTRAK","updated_at":"2026-05-25T13:38:17.957128Z"}}}